CDT,Max TemperatureF,Mean TemperatureF,Min TemperatureF,Max Dew PointF,MeanDew PointF,Min DewpointF,Max Humidity, Mean Humidity, Min Humidity, Max Sea Level PressureIn, Mean Sea Level PressureIn, Min Sea Level PressureIn, Max VisibilityMiles, Mean VisibilityMiles, Min VisibilityMiles, Max Wind SpeedMPH, Mean Wind SpeedMPH, Max Gust SpeedMPH,PrecipitationIn, CloudCover, Events, WindDirDegrees
2012-10-1,81,65,50,54,50,47,93,68,31,29.95,29.91,29.86,10,10,9,24,9,32,0.00,1,,344
2012-10-2,75,62,48,48,43,38,86,55,27,30.02,29.96,29.90,10,10,10,13,7,17,0.00,0,,346
2012-10-3,82,66,50,53,46,42,77,54,27,29.98,29.92,29.86,10,10,8,18,5,24,0.00,0,,173
2012-10-4,66,60,53,52,46,39,84,62,50,30.24,30.15,29.95,10,10,9,22,10,26,0.00,4,,23
2012-10-5,60,52,43,41,36,26,71,53,30,30.33,30.24,30.20,10,10,4,21,11,28,0.00,4,,30
2012-10-6,50,44,39,36,33,28,77,63,44,30.38,30.34,30.29,10,10,10,13,7,21,0.00,7,,8
2012-10-7,57,44,30,34,29,24,92,59,30,30.38,30.30,30.21,10,10,10,8,5,,0.00,1,,301
2012-10-8,68,50,32,37,33,28,88,57,28,30.22,30.11,29.99,10,10,10,21,9,26,0.00,0,,188
2012-10-9,70,57,46,51,44,36,80,64,50,30.16,29.96,29.87,10,10,10,20,10,28,0.00,2,,120
2012-10-10,66,51,36,40,32,28,89,53,24,30.31,30.22,30.14,10,9,2,8,4,,0.00,1,,97
2012-10-11,80,67,55,65,54,36,90,63,44,30.12,30.05,29.97,10,10,9,23,9,31,0.00,5,,157
2012-10-12,71,65,60,70,64,59,100,95,81,30.21,30.10,30.01,10,7,1,16,7,22,1.01,7,Rain-Thunderstorm,91
2012-10-13,77,70,64,71,67,62,100,90,79,29.97,29.81,29.62,10,8,5,22,15,33,0.11,5,Rain-Thunderstorm,174
2012-10-14,75,65,55,53,49,43,84,62,32,30.07,29.95,29.66,10,10,2,21,11,28,0.00,0,,289
2012-10-15,86,69,52,51,48,45,77,54,25,30.05,29.95,29.83,10,10,6,15,6,22,0.00,0,,218
2012-10-16,82,71,60,57,52,48,73,55,34,29.81,29.66,29.51,10,10,10,25,13,30,0.00,0,,186
2012-10-17,73,60,48,61,48,28,100,67,23,29.81,29.58,29.40,10,9,4,23,10,30,0.00,1,,347
2012-10-18,66,54,43,33,24,20,62,31,19,29.91,29.86,29.81,10,7,2,34,15,43,0.00,4,,294
2012-10-19,68,57,46,35,28,22,63,36,22,29.93,29.87,29.83,10,10,8,23,12,32,0.00,1,,303
2012-10-20,82,64,45,56,42,31,73,49,29,29.85,29.76,29.68,10,10,10,10,5,,0.00,0,,140
2012-10-21,88,75,62,68,65,57,100,77,48,29.75,29.69,29.63,10,9,4,24,12,31,0.00,1,,152
2012-10-22,79,73,69,67,63,58,81,71,57,29.82,29.77,29.70,10,10,9,24,18,32,0.00,1,,191
2012-10-23,87,76,66,68,66,62,100,78,49,29.82,29.76,29.68,10,10,10,24,18,37,0.00,2,,179
2012-10-24,84,75,68,68,66,63,94,78,58,29.83,29.76,29.67,10,10,9,25,18,37,0.00,3,,178
2012-10-25,72,58,43,63,46,34,100,77,59,30.29,29.96,29.62,10,9,2,28,22,36,0.01,5,Rain,333
2012-10-26,48,40,30,31,27,24,82,65,41,30.51,30.43,30.34,10,10,10,23,16,32,0.00,1,,5
2012-10-27,51,38,24,29,26,22,91,64,36,30.46,30.35,30.25,10,10,9,8,4,,0.00,1,,46
2012-10-28,57,42,28,31,27,25,85,57,32,30.35,30.29,30.23,10,10,9,7,3,,0.00,1,Snow,129
2012-10-29,66,52,37,32,30,27,73,49,26,30.29,30.20,30.08,10,10,9,15,7,23,0.00,0,,159
2012-10-30,78,62,46,40,36,31,63,46,25,30.07,29.97,29.86,10,10,10,13,6,,0.00,1,,199
2012-10-31,69,52,36,38,35,30,86,56,31,30.11,30.04,29.98,10,10,8,7,3,,0.00,0,,24